MSR792 LIRF-HECA

Flight info

Callsign MSR792
Flight time 2h 50m
Altitude 35000
Route PEPIX L50 UNIXO DCT RUTOM DCT TRL UL612 KUMBI L612 BLT A16 CVO
Aircraft B738/M-SDE2E3FGHIRWXY/LB1

Departure

Time 2026-05-06 19:16
Airport Rome–Fiumicino Leonardo da Vinci International Airport (LIRF)

Arrival

Time 2026-05-06 22:06
Airport Cairo International Airport (HECA)
Time Latitude Longitude Altitude Speed Heading
2026-05-06 18:42 41.79652 12.24301 13 ft 0 kts 250°
2026-05-06 19:01 41.79653 12.24306 14 ft 2 kts 250°
2026-05-06 19:01 41.79659 12.24331 13 ft 3 kts 254°
2026-05-06 19:02 41.79664 12.24357 15 ft 3 kts 260°
2026-05-06 19:02 41.79667 12.24384 15 ft 3 kts 271°
2026-05-06 19:02 41.79666 12.24403 16 ft 3 kts 289°
2026-05-06 19:02 41.79658 12.24421 13 ft 2 kts 332°
2026-05-06 19:03 41.79654 12.24423 14 ft 1 kts 340°
2026-05-06 19:06 41.79660 12.24421 15 ft 2 kts 340°
2026-05-06 19:06 41.79685 12.24408 13 ft 6 kts 340°
2026-05-06 19:07 41.79738 12.24383 14 ft 9 kts 340°
2026-05-06 19:07 41.79776 12.24363 14 ft 9 kts 338°
2026-05-06 19:07 41.79835 12.24373 14 ft 0 kts 49°
2026-05-06 19:08 41.79836 12.24374 14 ft 1 kts 49°
2026-05-06 19:08 41.79848 12.24390 14 ft 5 kts 43°
2026-05-06 19:08 41.79887 12.24400 13 ft 0 kts 346°
2026-05-06 19:08 41.79899 12.24396 13 ft 3 kts 342°
2026-05-06 19:09 41.79923 12.24384 13 ft 5 kts 341°
2026-05-06 19:09 41.79975 12.24408 12 ft 12 kts 48°
2026-05-06 19:09 41.80013 12.24533 14 ft 17 kts 70°
2026-05-06 19:09 41.80058 12.24697 16 ft 20 kts 70°
2026-05-06 19:10 41.80103 12.24870 17 ft 20 kts 76°
2026-05-06 19:10 41.80103 12.25042 18 ft 18 kts 98°
2026-05-06 19:10 41.80097 12.25182 18 ft 14 kts 84°
2026-05-06 19:10 41.80128 12.25306 18 ft 13 kts 69°
2026-05-06 19:11 41.80179 12.25394 19 ft 13 kts 22°
2026-05-06 19:11 41.80239 12.25423 19 ft 15 kts 20°
2026-05-06 19:11 41.80329 12.25515 15 ft 18 kts 67°
2026-05-06 19:11 41.80370 12.25666 16 ft 17 kts 69°
2026-05-06 19:12 41.80410 12.25811 15 ft 16 kts 70°
2026-05-06 19:12 41.80461 12.25995 15 ft 15 kts 70°
2026-05-06 19:12 41.80485 12.26086 14 ft 15 kts 70°
2026-05-06 19:12 41.80531 12.26251 14 ft 14 kts 69°
2026-05-06 19:13 41.80554 12.26333 15 ft 14 kts 70°
2026-05-06 19:13 41.80587 12.26451 16 ft 13 kts 70°
2026-05-06 19:13 41.80619 12.26569 14 ft 14 kts 70°
2026-05-06 19:13 41.80656 12.26705 13 ft 17 kts 70°
2026-05-06 19:14 41.80698 12.26859 10 ft 18 kts 70°
2026-05-06 19:14 41.80732 12.26981 9 ft 9 kts 69°
2026-05-06 19:14 41.80767 12.27036 9 ft 8 kts 27°
2026-05-06 19:14 41.80818 12.27035 9 ft 8 kts 342°
2026-05-06 19:15 41.80868 12.27013 9 ft 7 kts 339°
2026-05-06 19:15 41.80915 12.26988 10 ft 7 kts 338°
2026-05-06 19:15 41.80953 12.26951 10 ft 7 kts 297°
2026-05-06 19:15 41.80949 12.26890 12 ft 7 kts 248°
2026-05-06 19:16 41.80920 12.26785 10 ft 32 kts 249°
2026-05-06 19:16 41.80751 12.26178 20 ft 105 kts 249°
2026-05-06 19:16 41.80420 12.24972 34 ft 166 kts 246°
2026-05-06 19:16 41.80058 12.23434 691 ft 171 kts 249°
2026-05-06 19:17 41.79661 12.22016 1748 ft 157 kts 241°
2026-05-06 19:17 41.79078 12.20753 2238 ft 169 kts 218°
2026-05-06 19:17 41.78072 12.19791 2672 ft 183 kts 214°
2026-05-06 19:17 41.77063 12.18735 3298 ft 184 kts 216°
2026-05-06 19:18 41.76091 12.17652 4002 ft 187 kts 217°
2026-05-06 19:18 41.74998 12.16641 4385 ft 197 kts 199°
2026-05-06 19:18 41.73625 12.16439 4812 ft 203 kts 173°
2026-05-06 19:18 41.72238 12.16705 5328 ft 205 kts 175°
2026-05-06 19:19 41.70721 12.16829 5376 ft 229 kts 179°
2026-05-06 19:19 41.69120 12.16942 5989 ft 227 kts 178°
2026-05-06 19:19 41.67487 12.17077 6250 ft 249 kts 178°
2026-05-06 19:19 41.65671 12.17193 6596 ft 265 kts 178°
2026-05-06 19:20 41.63840 12.17301 7399 ft 264 kts 178°
2026-05-06 19:20 41.61991 12.17397 8103 ft 267 kts 178°
2026-05-06 19:20 41.60148 12.17487 8834 ft 269 kts 178°
2026-05-06 19:20 41.58269 12.17577 9516 ft 274 kts 178°
2026-05-06 19:21 41.56377 12.17665 10189 ft 276 kts 178°
2026-05-06 19:21 41.54376 12.17510 10483 ft 295 kts 189°
2026-05-06 19:21 41.52286 12.16981 10670 ft 315 kts 191°
2026-05-06 19:21 41.50062 12.16376 10787 ft 337 kts 191°
2026-05-06 19:22 41.47745 12.15761 11006 ft 352 kts 191°
2026-05-06 19:22 41.45301 12.15143 11468 ft 360 kts 190°
2026-05-06 19:22 41.42824 12.14533 12040 ft 363 kts 190°
2026-05-06 19:22 41.40328 12.13925 12703 ft 366 kts 190°
2026-05-06 19:23 41.37811 12.13312 13332 ft 369 kts 190°
2026-05-06 19:23 41.35272 12.12694 13966 ft 372 kts 191°
2026-05-06 19:23 41.32704 12.12218 14539 ft 376 kts 181°
2026-05-06 19:23 41.30105 12.12718 15136 ft 380 kts 165°
2026-05-06 19:24 41.27573 12.13818 15766 ft 383 kts 163°
2026-05-06 19:24 41.25037 12.14971 16337 ft 387 kts 163°
2026-05-06 19:24 41.22472 12.16115 16869 ft 391 kts 164°
2026-05-06 19:24 41.19870 12.17244 17410 ft 395 kts 164°
2026-05-06 19:25 41.17252 12.18398 17927 ft 400 kts 161°
2026-05-06 19:25 41.14832 12.20270 18387 ft 411 kts 143°
2026-05-06 19:25 41.12732 12.22898 18848 ft 416 kts 139°
2026-05-06 19:25 41.10666 12.25608 19274 ft 420 kts 139°
2026-05-06 19:26 41.08585 12.28349 19720 ft 424 kts 139°
2026-05-06 19:26 41.06476 12.31113 20179 ft 427 kts 139°
2026-05-06 19:26 41.04352 12.33873 20636 ft 430 kts 140°
2026-05-06 19:26 41.02201 12.36651 21077 ft 433 kts 140°
2026-05-06 19:27 41.00043 12.39426 21510 ft 435 kts 140°
2026-05-06 19:27 40.97853 12.42233 21942 ft 438 kts 140°
2026-05-06 19:27 40.95658 12.45043 22364 ft 440 kts 140°
2026-05-06 19:27 40.93451 12.47865 22776 ft 443 kts 141°
2026-05-06 19:28 40.91262 12.50662 23181 ft 445 kts 141°
2026-05-06 19:28 40.89028 12.53516 23572 ft 448 kts 141°
2026-05-06 19:28 40.86779 12.56386 23903 ft 450 kts 141°
2026-05-06 19:28 40.84526 12.59259 24236 ft 452 kts 141°
2026-05-06 19:29 40.82261 12.62144 24557 ft 454 kts 141°
2026-05-06 19:29 40.79984 12.65050 24865 ft 457 kts 140°
2026-05-06 19:29 40.77905 12.68278 25152 ft 466 kts 131°
2026-05-06 19:29 40.76186 12.71944 25443 ft 475 kts 121°
2026-05-06 19:30 40.74830 12.75962 25752 ft 480 kts 118°
2026-05-06 19:30 40.73548 12.80040 26024 ft 483 kts 117°
2026-05-06 19:30 40.72276 12.84153 26271 ft 486 kts 117°
2026-05-06 19:30 40.70994 12.88287 26538 ft 488 kts 117°
2026-05-06 19:31 40.69698 12.92423 26809 ft 490 kts 117°
2026-05-06 19:31 40.68397 12.96524 27073 ft 492 kts 118°
2026-05-06 19:31 40.65721 13.04852 27567 ft 496 kts 118°
2026-05-06 19:32 40.64364 13.09042 27816 ft 498 kts 118°
2026-05-06 19:32 40.63002 13.13239 28046 ft 500 kts 118°
2026-05-06 19:32 40.61631 13.17460 28387 ft 499 kts 118°
2026-05-06 19:32 40.60264 13.21663 28784 ft 498 kts 118°
2026-05-06 19:33 40.58902 13.25849 29181 ft 496 kts 118°
2026-05-06 19:33 40.57544 13.30016 29542 ft 496 kts 118°
2026-05-06 19:33 40.56180 13.34192 29886 ft 496 kts 118°
2026-05-06 19:33 40.54818 13.38354 30227 ft 495 kts 118°
2026-05-06 19:34 40.53461 13.42501 30597 ft 492 kts 118°
2026-05-06 19:34 40.52111 13.46618 31007 ft 489 kts 118°
2026-05-06 19:34 40.50769 13.50706 31410 ft 486 kts 118°
2026-05-06 19:34 40.49449 13.54722 31760 ft 484 kts 118°
2026-05-06 19:35 40.48112 13.58779 32079 ft 482 kts 118°
2026-05-06 19:35 40.46779 13.62815 32412 ft 480 kts 118°
2026-05-06 19:35 40.45453 13.66827 32772 ft 478 kts 118°
2026-05-06 19:35 40.44130 13.70824 33125 ft 476 kts 118°
2026-05-06 19:36 40.42813 13.74799 33450 ft 474 kts 118°
2026-05-06 19:36 40.41497 13.78763 33753 ft 473 kts 118°
2026-05-06 19:36 40.40182 13.82718 34068 ft 471 kts 118°
2026-05-06 19:36 40.38873 13.86652 34265 ft 471 kts 118°
2026-05-06 19:37 40.37557 13.90596 34395 ft 473 kts 118°
2026-05-06 19:37 40.36232 13.94561 34551 ft 474 kts 118°
2026-05-06 19:37 40.34908 13.98520 34757 ft 474 kts 118°
2026-05-06 19:37 40.34029 14.01147 34885 ft 474 kts 118°
2026-05-06 19:38 40.32268 14.06403 35021 ft 476 kts 118°
2026-05-06 19:38 40.30931 14.10385 35022 ft 478 kts 118°
2026-05-06 19:38 40.28255 14.18344 35021 ft 475 kts 118°
2026-05-06 19:39 40.25593 14.26241 35027 ft 473 kts 118°
2026-05-06 19:39 40.22939 14.34089 35022 ft 471 kts 118°
2026-05-06 19:40 40.20283 14.41918 35023 ft 470 kts 118°
2026-05-06 19:40 40.17626 14.49728 35025 ft 470 kts 118°
2026-05-06 19:41 40.14957 14.57550 35018 ft 471 kts 118°
2026-05-06 19:41 40.12277 14.65385 35019 ft 473 kts 118°
2026-05-06 19:42 40.09603 14.73181 35021 ft 474 kts 118°
2026-05-06 19:42 40.06896 14.81052 35019 ft 476 kts 118°
2026-05-06 19:43 40.04174 14.88946 35019 ft 477 kts 118°
2026-05-06 19:43 40.01440 14.96853 35013 ft 478 kts 118°
2026-05-06 19:44 39.98698 15.04761 35012 ft 479 kts 118°
2026-05-06 19:44 39.95946 15.12676 35008 ft 479 kts 118°
2026-05-06 19:45 39.93189 15.20584 35009 ft 479 kts 118°
2026-05-06 19:45 39.90430 15.28476 35010 ft 479 kts 118°
2026-05-06 19:46 39.87659 15.36380 35014 ft 479 kts 118°
2026-05-06 19:46 39.84904 15.44216 35010 ft 479 kts 118°
2026-05-06 19:47 39.82127 15.52092 35011 ft 479 kts 118°
2026-05-06 19:47 39.79345 15.59964 35013 ft 479 kts 118°
2026-05-06 19:48 39.76559 15.67823 35015 ft 479 kts 117°
2026-05-06 19:48 39.73768 15.75676 35014 ft 479 kts 117°
2026-05-06 19:49 39.70965 15.83540 35017 ft 479 kts 117°
2026-05-06 19:49 39.68160 15.91390 35025 ft 480 kts 117°
2026-05-06 19:50 39.65333 15.99280 35009 ft 482 kts 117°
2026-05-06 19:50 39.62502 16.07160 35019 ft 482 kts 117°
2026-05-06 19:51 39.59656 16.15061 35021 ft 482 kts 117°
2026-05-06 19:51 39.56810 16.22940 35024 ft 482 kts 117°
2026-05-06 19:52 39.53959 16.30812 35032 ft 482 kts 117°
2026-05-06 19:52 39.51121 16.38627 35016 ft 483 kts 117°
2026-05-06 19:53 39.48259 16.46488 35039 ft 483 kts 117°
2026-05-06 19:53 39.45386 16.54357 35041 ft 483 kts 117°
2026-05-06 19:54 39.42508 16.62217 35049 ft 483 kts 117°
2026-05-06 19:54 39.39626 16.70071 35044 ft 483 kts 117°
2026-05-06 19:55 39.36754 16.77873 35022 ft 484 kts 117°
2026-05-06 19:55 39.33860 16.85718 35040 ft 484 kts 117°
2026-05-06 19:56 39.30953 16.93575 35028 ft 484 kts 117°
2026-05-06 19:56 39.28043 17.01420 35038 ft 484 kts 117°
2026-05-06 19:57 39.25128 17.09255 35036 ft 484 kts 117°
2026-05-06 19:57 39.22701 17.15766 35037 ft 484 kts 117°
2026-05-06 19:58 39.19779 17.23585 35046 ft 483 kts 117°
2026-05-06 19:58 39.16858 17.31382 35041 ft 483 kts 117°
2026-05-06 19:59 39.13936 17.39159 35043 ft 482 kts 117°
2026-05-06 19:59 39.11012 17.46923 35045 ft 481 kts 117°
2026-05-06 20:00 39.08086 17.54671 35044 ft 481 kts 117°
2026-05-06 20:00 39.05171 17.62370 35047 ft 481 kts 117°
2026-05-06 20:01 39.02237 17.70101 35050 ft 481 kts 117°
2026-05-06 20:01 38.99292 17.77839 35057 ft 482 kts 117°
2026-05-06 20:02 38.96339 17.85577 35053 ft 483 kts 117°
2026-05-06 20:02 38.93373 17.93331 35060 ft 484 kts 117°
2026-05-06 20:03 38.90399 18.01086 35057 ft 485 kts 117°
2026-05-06 20:03 38.87409 18.08864 35069 ft 485 kts 117°
2026-05-06 20:04 38.84430 18.16590 35068 ft 486 kts 117°
2026-05-06 20:04 38.81420 18.24380 35074 ft 487 kts 117°
2026-05-06 20:05 38.78402 18.32171 35074 ft 488 kts 117°
2026-05-06 20:05 38.75380 18.39952 35070 ft 488 kts 117°
2026-05-06 20:06 38.72347 18.47739 35076 ft 488 kts 117°
2026-05-06 20:06 38.69307 18.55527 35073 ft 488 kts 117°
2026-05-06 20:07 38.66264 18.63301 35081 ft 488 kts 117°
2026-05-06 20:07 38.63223 18.71051 35083 ft 488 kts 117°
2026-05-06 20:08 38.60179 18.78791 35083 ft 487 kts 117°
2026-05-06 20:08 38.57151 18.86470 35084 ft 486 kts 117°
2026-05-06 20:09 38.54100 18.94192 35089 ft 486 kts 117°
2026-05-06 20:09 38.51116 19.01941 35092 ft 486 kts 113°
2026-05-06 20:10 38.48559 19.09902 35097 ft 485 kts 111°
2026-05-06 20:10 38.46087 19.17940 35092 ft 486 kts 111°
2026-05-06 20:11 38.43589 19.25955 35098 ft 486 kts 111°
2026-05-06 20:11 38.41055 19.33959 35100 ft 487 kts 111°
2026-05-06 20:12 38.38503 19.41960 35101 ft 487 kts 111°
2026-05-06 20:12 38.35962 19.49901 35101 ft 487 kts 111°
2026-05-06 20:13 38.33397 19.57899 35102 ft 487 kts 111°
2026-05-06 20:13 38.30828 19.65891 35101 ft 487 kts 111°
2026-05-06 20:14 38.28254 19.73875 35100 ft 487 kts 111°
2026-05-06 20:14 38.25676 19.81851 35102 ft 487 kts 111°
2026-05-06 20:15 38.23095 19.89813 35104 ft 487 kts 111°
2026-05-06 20:15 38.20509 19.97768 35099 ft 487 kts 111°
2026-05-06 20:16 38.17919 20.05712 35101 ft 486 kts 111°
2026-05-06 20:16 38.15340 20.13602 35101 ft 486 kts 110°
2026-05-06 20:17 38.12741 20.21529 35103 ft 486 kts 110°
2026-05-06 20:17 38.10135 20.29458 35103 ft 486 kts 110°
2026-05-06 20:18 38.07522 20.37383 35106 ft 485 kts 110°
2026-05-06 20:18 38.04915 20.45273 35106 ft 485 kts 110°
2026-05-06 20:19 38.02297 20.53173 35104 ft 485 kts 110°
2026-05-06 20:19 37.99676 20.61058 35102 ft 485 kts 111°
2026-05-06 20:20 37.97072 20.68873 35105 ft 484 kts 111°
2026-05-06 20:20 37.94447 20.76730 35102 ft 484 kts 111°
2026-05-06 20:21 37.91813 20.84591 35099 ft 484 kts 111°
2026-05-06 20:21 37.89180 20.92430 35104 ft 483 kts 111°
2026-05-06 20:22 37.86573 21.00169 35101 ft 483 kts 111°
2026-05-06 20:22 37.83932 21.07989 35106 ft 482 kts 111°
2026-05-06 20:23 37.81291 21.15788 35105 ft 482 kts 111°
2026-05-06 20:23 37.78648 21.23572 35105 ft 481 kts 111°
2026-05-06 20:24 37.76011 21.31318 35100 ft 481 kts 112°
2026-05-06 20:24 37.73363 21.39078 35107 ft 481 kts 112°
2026-05-06 20:25 37.70703 21.46849 35104 ft 481 kts 112°
2026-05-06 20:25 37.68044 21.54597 35109 ft 481 kts 112°
2026-05-06 20:26 37.65396 21.62296 35112 ft 481 kts 112°
2026-05-06 20:26 37.62725 21.70040 35114 ft 481 kts 112°
2026-05-06 20:27 37.60048 21.77780 35117 ft 481 kts 112°
2026-05-06 20:27 37.57368 21.85512 35126 ft 481 kts 112°
2026-05-06 20:28 37.54695 21.93199 35121 ft 482 kts 112°
2026-05-06 20:28 37.51998 22.00939 35125 ft 482 kts 112°
2026-05-06 20:29 37.49293 22.08682 35119 ft 483 kts 112°
2026-05-06 20:29 37.46583 22.16417 35121 ft 483 kts 113°
2026-05-06 20:30 37.42505 22.28026 35120 ft 483 kts 113°
2026-05-06 20:31 37.39578 22.35633 35108 ft 484 kts 122°
2026-05-06 20:31 37.35667 22.42518 35110 ft 484 kts 126°
2026-05-06 20:32 37.31659 22.49309 35109 ft 483 kts 126°
2026-05-06 20:32 37.27687 22.56120 35107 ft 482 kts 126°
2026-05-06 20:33 37.23751 22.62935 35101 ft 482 kts 126°
2026-05-06 20:33 37.19836 22.69717 35092 ft 482 kts 126°
2026-05-06 20:34 37.15908 22.76507 35088 ft 481 kts 126°
2026-05-06 20:34 37.11967 22.83300 35092 ft 481 kts 126°
2026-05-06 20:35 37.08032 22.90068 35086 ft 481 kts 126°
2026-05-06 20:35 37.04087 22.96840 35086 ft 481 kts 126°
2026-05-06 20:36 37.00140 23.03602 35075 ft 481 kts 126°
2026-05-06 20:36 36.96193 23.10350 35084 ft 481 kts 126°
2026-05-06 20:37 36.92238 23.17099 35075 ft 481 kts 126°
2026-05-06 20:37 36.88312 23.23786 35076 ft 481 kts 126°
2026-05-06 20:38 36.84348 23.30526 35073 ft 481 kts 126°
2026-05-06 20:38 36.80380 23.37255 35072 ft 481 kts 126°
2026-05-06 20:39 36.76401 23.43960 35072 ft 481 kts 126°
2026-05-06 20:39 36.72413 23.50662 35073 ft 481 kts 126°
2026-05-06 20:40 36.68421 23.57364 35074 ft 481 kts 126°
2026-05-06 20:40 36.64421 23.64070 35078 ft 481 kts 126°
2026-05-06 20:41 36.60420 23.70763 35083 ft 482 kts 126°
2026-05-06 20:41 36.56435 23.77417 35081 ft 482 kts 126°
2026-05-06 20:42 36.52423 23.84102 35087 ft 482 kts 126°
2026-05-06 20:42 36.48406 23.90783 35085 ft 482 kts 126°
2026-05-06 20:43 36.44387 23.97457 35088 ft 482 kts 126°
2026-05-06 20:43 36.40360 24.04130 35088 ft 482 kts 126°
2026-05-06 20:44 36.36371 24.10759 35093 ft 483 kts 126°
2026-05-06 20:44 36.32358 24.17440 35094 ft 483 kts 126°
2026-05-06 20:45 36.28340 24.24114 35095 ft 483 kts 127°
2026-05-06 20:45 36.24319 24.30778 35093 ft 483 kts 127°
2026-05-06 20:46 36.20970 24.36317 35096 ft 483 kts 127°
2026-05-06 20:46 36.16925 24.42966 35097 ft 483 kts 127°
2026-05-06 20:47 36.12873 24.49597 35096 ft 483 kts 127°
2026-05-06 20:47 36.08820 24.56223 35096 ft 483 kts 127°
2026-05-06 20:48 36.04762 24.62848 35100 ft 483 kts 127°
2026-05-06 20:48 36.00702 24.69465 35103 ft 483 kts 127°
2026-05-06 20:49 35.96636 24.76079 35102 ft 483 kts 127°
2026-05-06 20:49 35.92563 24.82691 35102 ft 483 kts 127°
2026-05-06 20:50 35.88494 24.89284 35100 ft 483 kts 127°
2026-05-06 20:50 35.84417 24.95878 35102 ft 483 kts 127°
2026-05-06 20:51 35.80343 25.02454 35105 ft 483 kts 127°
2026-05-06 20:51 35.76282 25.08997 35109 ft 483 kts 128°
2026-05-06 20:52 35.72198 25.15568 35112 ft 483 kts 128°
2026-05-06 20:52 35.68112 25.22122 35114 ft 483 kts 128°
2026-05-06 20:53 35.64015 25.28668 35114 ft 483 kts 128°
2026-05-06 20:53 35.59913 25.35209 35116 ft 483 kts 128°
2026-05-06 20:54 35.55812 25.41743 35120 ft 483 kts 128°
2026-05-06 20:54 35.51728 25.48236 35119 ft 483 kts 128°
2026-05-06 20:55 35.47617 25.54761 35118 ft 483 kts 128°
2026-05-06 20:55 35.43496 25.61289 35118 ft 483 kts 128°
2026-05-06 20:56 35.39381 25.67796 35120 ft 483 kts 128°
2026-05-06 20:56 35.35257 25.74306 35121 ft 484 kts 128°
2026-05-06 20:57 35.31124 25.80817 35117 ft 484 kts 128°
2026-05-06 20:57 35.26993 25.87313 35119 ft 484 kts 128°
2026-05-06 20:58 35.22846 25.93822 35119 ft 484 kts 128°
2026-05-06 20:58 35.18695 26.00325 35123 ft 484 kts 128°
2026-05-06 20:59 35.14542 26.06821 35117 ft 485 kts 128°
2026-05-06 20:59 35.10417 26.13261 35126 ft 485 kts 128°
2026-05-06 21:00 35.06285 26.19775 35108 ft 485 kts 125°
2026-05-06 21:00 35.02642 26.26695 35118 ft 485 kts 121°
2026-05-06 21:01 34.99176 26.33658 35117 ft 485 kts 121°
2026-05-06 21:01 34.95651 26.40666 35117 ft 485 kts 122°
2026-05-06 21:02 34.92088 26.47639 35114 ft 485 kts 122°
2026-05-06 21:02 34.88502 26.54604 35116 ft 485 kts 122°
2026-05-06 21:03 34.84907 26.61569 35115 ft 485 kts 122°
2026-05-06 21:03 34.81313 26.68522 35115 ft 485 kts 122°
2026-05-06 21:04 34.77715 26.75475 35118 ft 486 kts 122°
2026-05-06 21:04 34.74108 26.82428 35117 ft 486 kts 122°
2026-05-06 21:05 34.70495 26.89383 35113 ft 487 kts 122°
2026-05-06 21:05 34.66875 26.96335 35115 ft 487 kts 122°
2026-05-06 21:06 34.63273 27.03240 35118 ft 487 kts 122°
2026-05-06 21:06 34.59643 27.10184 35119 ft 487 kts 122°
2026-05-06 21:07 34.56008 27.17125 35121 ft 487 kts 122°
2026-05-06 21:07 34.52365 27.24067 35116 ft 487 kts 122°
2026-05-06 21:08 34.48722 27.30997 35116 ft 487 kts 122°
2026-05-06 21:08 34.45071 27.37928 35120 ft 487 kts 122°
2026-05-06 21:09 34.41420 27.44844 35118 ft 488 kts 122°
2026-05-06 21:09 34.37761 27.51764 35116 ft 488 kts 122°
2026-05-06 21:10 34.34099 27.58674 35118 ft 488 kts 122°
2026-05-06 21:10 34.30434 27.65577 35115 ft 487 kts 122°
2026-05-06 21:11 34.26788 27.72433 35118 ft 487 kts 123°
2026-05-06 21:11 34.23094 27.79364 35118 ft 487 kts 123°
2026-05-06 21:12 34.19440 27.86207 35120 ft 487 kts 123°
2026-05-06 21:12 34.15763 27.93079 35116 ft 487 kts 123°
2026-05-06 21:13 34.12083 27.99945 35119 ft 487 kts 123°
2026-05-06 21:13 34.08401 28.06802 35121 ft 487 kts 123°
2026-05-06 21:14 34.04712 28.13658 35120 ft 487 kts 123°
2026-05-06 21:14 34.01024 28.20500 35116 ft 487 kts 123°
2026-05-06 21:15 33.97330 28.27339 35119 ft 487 kts 123°
2026-05-06 21:15 33.93656 28.34130 35117 ft 487 kts 123°
2026-05-06 21:16 33.89955 28.40956 35116 ft 487 kts 123°
2026-05-06 21:16 33.86251 28.47777 35119 ft 487 kts 123°
2026-05-06 21:17 33.82606 28.54475 35118 ft 487 kts 123°
2026-05-06 21:17 33.78895 28.61284 35120 ft 487 kts 123°
2026-05-06 21:18 33.75179 28.68091 35117 ft 487 kts 123°
2026-05-06 21:18 33.71381 28.74833 35110 ft 487 kts 129°
2026-05-06 21:19 33.66634 28.80594 35121 ft 485 kts 139°
2026-05-06 21:19 33.61680 28.86016 35114 ft 485 kts 139°
2026-05-06 21:20 33.56708 28.91491 35117 ft 485 kts 139°
2026-05-06 21:20 33.51762 28.97000 35114 ft 485 kts 138°
2026-05-06 21:21 33.46824 29.02519 35118 ft 485 kts 138°
2026-05-06 21:21 33.41885 29.08033 35116 ft 485 kts 138°
2026-05-06 21:22 33.36936 29.13544 35117 ft 485 kts 139°
2026-05-06 21:22 33.31987 29.19046 35118 ft 485 kts 139°
2026-05-06 21:23 33.27039 29.24535 35118 ft 485 kts 139°
2026-05-06 21:23 33.22081 29.30029 35113 ft 485 kts 139°
2026-05-06 21:24 33.17167 29.35464 35114 ft 485 kts 139°
2026-05-06 21:24 33.12209 29.40939 35116 ft 485 kts 139°
2026-05-06 21:25 33.07255 29.46402 35117 ft 485 kts 139°
2026-05-06 21:25 33.02295 29.51861 35118 ft 485 kts 139°
2026-05-06 21:26 32.97341 29.57306 35115 ft 484 kts 139°
2026-05-06 21:26 32.92388 29.62742 35116 ft 484 kts 139°
2026-05-06 21:27 32.87460 29.68140 35117 ft 484 kts 139°
2026-05-06 21:27 32.82500 29.73565 35114 ft 484 kts 139°
2026-05-06 21:28 32.77548 29.78974 35115 ft 483 kts 139°
2026-05-06 21:28 32.72592 29.84378 35116 ft 483 kts 139°
2026-05-06 21:29 32.67638 29.89771 35120 ft 483 kts 139°
2026-05-06 21:29 32.62688 29.95152 35115 ft 483 kts 139°
2026-05-06 21:30 32.57731 30.00532 35115 ft 482 kts 139°
2026-05-06 21:30 32.52809 30.05867 35116 ft 482 kts 139°
2026-05-06 21:31 32.47864 30.11217 35117 ft 481 kts 139°
2026-05-06 21:31 32.42909 30.16562 35119 ft 481 kts 139°
2026-05-06 21:32 32.38793 30.20995 35116 ft 481 kts 139°
2026-05-06 21:32 32.31371 30.28978 35116 ft 480 kts 140°
2026-05-06 21:33 32.26430 30.34283 35117 ft 480 kts 140°
2026-05-06 21:33 32.21488 30.39582 35119 ft 480 kts 140°
2026-05-06 21:34 32.16538 30.44881 35120 ft 479 kts 140°
2026-05-06 21:34 32.11595 30.50164 35116 ft 479 kts 140°
2026-05-06 21:35 32.06649 30.55442 35117 ft 479 kts 140°
2026-05-06 21:35 32.01735 30.60679 35112 ft 479 kts 140°
2026-05-06 21:36 31.96792 30.65938 35114 ft 479 kts 140°
2026-05-06 21:36 31.91836 30.71203 35112 ft 479 kts 140°
2026-05-06 21:37 31.86897 30.76443 35107 ft 479 kts 140°
2026-05-06 21:37 31.81933 30.81700 35108 ft 479 kts 140°
2026-05-06 21:38 31.76978 30.86941 35106 ft 479 kts 140°
2026-05-06 21:38 31.72026 30.92171 35108 ft 479 kts 140°
2026-05-06 21:39 31.67055 30.97413 34794 ft 484 kts 140°
2026-05-06 21:39 31.64566 31.00033 34180 ft 484 kts 140°
2026-05-06 21:39 31.62067 31.02666 33404 ft 483 kts 140°
2026-05-06 21:40 31.59562 31.05302 32629 ft 483 kts 140°
2026-05-06 21:40 31.57050 31.07940 31854 ft 483 kts 141°
2026-05-06 21:40 31.54366 31.10294 31062 ft 481 kts 151°
2026-05-06 21:40 31.51391 31.12061 30274 ft 479 kts 160°
2026-05-06 21:41 31.48226 31.13280 29263 ft 477 kts 170°
2026-05-06 21:41 31.44958 31.13925 28354 ft 475 kts 174°
2026-05-06 21:41 31.41777 31.14450 27405 ft 476 kts 175°
2026-05-06 21:41 31.38495 31.14991 26586 ft 475 kts 174°
2026-05-06 21:42 31.35286 31.15547 25934 ft 470 kts 174°
2026-05-06 21:42 31.32069 31.16129 25260 ft 465 kts 174°
2026-05-06 21:42 31.28847 31.16723 24575 ft 461 kts 173°
2026-05-06 21:42 31.25726 31.17300 23898 ft 458 kts 173°
2026-05-06 21:43 31.22567 31.17885 23490 ft 448 kts 173°
2026-05-06 21:43 31.19541 31.18450 23356 ft 445 kts 173°
2026-05-06 21:43 31.16596 31.19003 23197 ft 430 kts 173°
2026-05-06 21:43 31.13698 31.19549 23105 ft 413 kts 173°
2026-05-06 21:44 31.10913 31.20073 23091 ft 396 kts 173°
2026-05-06 21:44 31.08239 31.20575 23090 ft 380 kts 174°
2026-05-06 21:44 31.05682 31.21054 23081 ft 366 kts 174°
2026-05-06 21:44 31.03214 31.21515 23085 ft 352 kts 174°
2026-05-06 21:45 31.00835 31.21958 22878 ft 344 kts 174°
2026-05-06 21:45 30.98456 31.22398 22518 ft 344 kts 174°
2026-05-06 21:45 30.96026 31.22845 21976 ft 369 kts 174°
2026-05-06 21:45 30.93427 31.23320 21319 ft 390 kts 173°
2026-05-06 21:46 30.90753 31.23815 20843 ft 389 kts 173°
2026-05-06 21:46 30.88081 31.24315 20400 ft 386 kts 173°
2026-05-06 21:46 30.85434 31.24810 19951 ft 383 kts 173°
2026-05-06 21:46 30.82808 31.25300 19495 ft 381 kts 173°
2026-05-06 21:47 30.80203 31.25785 19065 ft 378 kts 173°
2026-05-06 21:47 30.77617 31.26266 18633 ft 375 kts 174°
2026-05-06 21:47 30.75049 31.26742 18179 ft 372 kts 174°
2026-05-06 21:47 30.72495 31.27215 17698 ft 370 kts 174°
2026-05-06 21:48 30.69972 31.27682 17205 ft 369 kts 173°
2026-05-06 21:48 30.67430 31.28153 16718 ft 367 kts 173°
2026-05-06 21:48 30.64921 31.28617 16251 ft 365 kts 173°
2026-05-06 21:48 30.62417 31.29080 15801 ft 363 kts 173°
2026-05-06 21:49 30.59931 31.29539 15353 ft 361 kts 173°
2026-05-06 21:49 30.57456 31.29997 14912 ft 359 kts 173°
2026-05-06 21:49 30.54991 31.30452 14471 ft 358 kts 173°
2026-05-06 21:49 30.52571 31.30899 14046 ft 356 kts 173°
2026-05-06 21:50 30.50127 31.31350 13601 ft 354 kts 173°
2026-05-06 21:50 30.49484 31.31468 13483 ft 354 kts 173°
2026-05-06 21:50 30.48898 31.31576 13357 ft 353 kts 173°
2026-05-06 21:51 30.46952 31.31917 13020 ft 350 kts 176°
2026-05-06 21:51 30.44543 31.31805 12569 ft 345 kts 189°
2026-05-06 21:51 30.42174 31.31415 12146 ft 342 kts 191°
2026-05-06 21:51 30.39824 31.31003 11716 ft 341 kts 191°
2026-05-06 21:52 30.37485 31.30596 11301 ft 339 kts 190°
2026-05-06 21:52 30.35163 31.30202 10890 ft 337 kts 190°
2026-05-06 21:52 30.32849 31.29819 10505 ft 335 kts 189°
2026-05-06 21:52 30.30593 31.29452 10422 ft 319 kts 189°
2026-05-06 21:53 30.28475 31.29112 10313 ft 303 kts 189°
2026-05-06 21:53 30.26613 31.28814 10197 ft 289 kts 189°
2026-05-06 21:53 30.24641 31.28499 9845 ft 284 kts 189°
2026-05-06 21:53 30.22673 31.28183 9399 ft 287 kts 189°
2026-05-06 21:54 30.20704 31.27868 9120 ft 285 kts 189°
2026-05-06 21:54 30.18835 31.27208 8803 ft 280 kts 213°
2026-05-06 21:54 30.17302 31.25842 8522 ft 277 kts 223°
2026-05-06 21:54 30.15877 31.24359 8216 ft 274 kts 224°
2026-05-06 21:55 30.14525 31.22930 7827 ft 273 kts 224°
2026-05-06 21:55 30.13123 31.21442 7420 ft 273 kts 225°
2026-05-06 21:55 30.11722 31.19953 7060 ft 275 kts 225°
2026-05-06 21:55 30.10325 31.18471 6747 ft 270 kts 225°
2026-05-06 21:56 30.08937 31.17003 6360 ft 270 kts 225°
2026-05-06 21:56 30.07559 31.15545 6026 ft 266 kts 224°
2026-05-06 21:56 30.06228 31.14139 5937 ft 252 kts 225°
2026-05-06 21:56 30.04967 31.12812 5834 ft 239 kts 225°
2026-05-06 21:57 30.03755 31.11542 5608 ft 233 kts 224°
2026-05-06 21:57 30.02554 31.10283 5293 ft 232 kts 225°
2026-05-06 21:57 30.01366 31.09039 4991 ft 231 kts 225°
2026-05-06 21:57 30.00183 31.07798 4662 ft 230 kts 225°
2026-05-06 21:58 29.98988 31.06560 4287 ft 233 kts 218°
2026-05-06 21:58 29.97499 31.05861 3967 ft 234 kts 184°
2026-05-06 21:58 29.95919 31.06176 3580 ft 232 kts 150°
2026-05-06 21:58 29.94777 31.07396 3374 ft 218 kts 113°
2026-05-06 21:59 29.94438 31.08989 3314 ft 197 kts 87°
2026-05-06 21:59 29.94452 31.10503 3184 ft 186 kts 79°
2026-05-06 21:59 29.94645 31.11970 2946 ft 180 kts 76°
2026-05-06 21:59 29.94856 31.13346 2708 ft 175 kts 76°
2026-05-06 22:00 29.95052 31.14589 2530 ft 174 kts 75°
2026-05-06 22:00 29.95268 31.15974 2492 ft 176 kts 75°
2026-05-06 22:00 29.95489 31.17363 2496 ft 177 kts 76°
2026-05-06 22:00 29.95723 31.18753 2496 ft 176 kts 73°
2026-05-06 22:01 29.96040 31.20100 2495 ft 173 kts 70°
2026-05-06 22:01 29.96443 31.21409 2486 ft 171 kts 56°
2026-05-06 22:01 29.97147 31.22492 2502 ft 170 kts 50°
2026-05-06 22:01 29.97883 31.23567 2489 ft 170 kts 49°
2026-05-06 22:02 29.98636 31.24616 2494 ft 170 kts 47°
2026-05-06 22:02 29.99401 31.25656 2502 ft 170 kts 47°
2026-05-06 22:02 30.00178 31.26701 2495 ft 171 kts 47°
2026-05-06 22:02 30.00955 31.27744 2484 ft 172 kts 47°
2026-05-06 22:03 30.01734 31.28788 2503 ft 172 kts 47°
2026-05-06 22:03 30.02516 31.29836 2490 ft 172 kts 47°
2026-05-06 22:03 30.03304 31.30894 2375 ft 176 kts 47°
2026-05-06 22:03 30.04076 31.31929 2162 ft 163 kts 47°
2026-05-06 22:04 30.04677 31.32734 1984 ft 151 kts 47°
2026-05-06 22:04 30.05326 31.33604 1808 ft 135 kts 48°
2026-05-06 22:04 30.05920 31.34400 1630 ft 132 kts 48°
2026-05-06 22:04 30.06490 31.35163 1453 ft 133 kts 48°
2026-05-06 22:05 30.07078 31.35950 1277 ft 133 kts 48°
2026-05-06 22:05 30.07678 31.36756 1091 ft 131 kts 48°
2026-05-06 22:05 30.08254 31.37559 898 ft 128 kts 47°
2026-05-06 22:05 30.08832 31.38333 772 ft 126 kts 47°
2026-05-06 22:06 30.09401 31.39083 641 ft 121 kts 47°
2026-05-06 22:06 30.09952 31.39808 426 ft 122 kts 47°
2026-05-06 22:06 30.10461 31.40486 387 ft 103 kts 50°
2026-05-06 22:06 30.10827 31.40971 385 ft 49 kts 49°
2026-05-06 22:07 30.11037 31.41249 386 ft 42 kts 49°
2026-05-06 22:07 30.11213 31.41482 385 ft 32 kts 47°
2026-05-06 22:07 30.11381 31.41589 380 ft 17 kts 18°
2026-05-06 22:07 30.11494 31.41627 375 ft 17 kts
2026-05-06 22:08 30.11574 31.41562 368 ft 5 kts 266°
2026-05-06 22:08 30.11553 31.41531 369 ft 5 kts 224°
2026-05-06 22:08 30.11519 31.41494 369 ft 9 kts 223°
2026-05-06 22:08 30.11468 31.41430 371 ft 13 kts 234°
2026-05-06 22:09 30.11406 31.41340 368 ft 14 kts 229°
2026-05-06 22:09 30.11342 31.41255 369 ft 14 kts 229°
2026-05-06 22:09 30.11277 31.41170 369 ft 14 kts 228°
2026-05-06 22:09 30.11211 31.41081 369 ft 16 kts 229°
2026-05-06 22:10 30.11128 31.40969 369 ft 20 kts 229°
2026-05-06 22:10 30.11035 31.40844 369 ft 20 kts 228°
2026-05-06 22:10 30.10942 31.40725 369 ft 20 kts 228°
2026-05-06 22:10 30.10854 31.40609 370 ft 19 kts 230°
2026-05-06 22:11 30.10770 31.40495 370 ft 18 kts 229°
2026-05-06 22:11 30.10704 31.40407 370 ft 12 kts 228°
2026-05-06 22:11 30.10690 31.40323 368 ft 13 kts 309°
2026-05-06 22:11 30.10689 31.40227 367 ft 14 kts 230°
2026-05-06 22:12 30.10626 31.40145 367 ft 13 kts 228°
2026-05-06 22:12 30.10567 31.40066 364 ft 13 kts 228°
2026-05-06 22:12 30.10509 31.39990 368 ft 13 kts 228°
2026-05-06 22:12 30.10493 31.39897 368 ft 14 kts 289°
2026-05-06 22:13 30.10579 31.39843 363 ft 16 kts 345°
2026-05-06 22:13 30.10677 31.39815 353 ft 8 kts 345°
2026-05-06 22:13 30.10732 31.39798 351 ft 6 kts 345°
2026-05-06 22:13 30.10758 31.39758 344 ft 8 kts 265°
2026-05-06 22:14 30.10746 31.39706 347 ft 1 kts 254°
2026-05-06 22:14 30.10745 31.39700 349 ft 0 kts 254°